Location: Hains Lake
(37.8540°N, 99.8578°W)
Time: 08:37:21
(UTC+00:00)

Vanguard 3 - Pass Details

Date: 19 April 2021
Orbit: 508 x 3262 km, 33.3° (Epoch: 09 May)

Event Time Altitude Azimuth Distance (km) Brightness Sun altitude
Exits shadow 11:19:17 10° 257° (WSW) 1,686 8.1 -8.1°
Maximum altitude 11:22:38 38° 188° (S) 825 7.0 -7.5°
Drops below altitude 10° 11:26:37 10° 119° (ESE) 2,009 9.8 -6.8°
Sets 11:29:28 0° 112° (ESE) 3,180 11.1 -6.3°
